DECAYED

NOAA 17 DEB, 48180 (Decayed)

Orbit data source: Space-Track

NOAA 17 DEB, 48180 was space debris in SSO originally from a launch on Mon, 24 Jun 2002 UTC launched from the Air Force Western Test Range (AFWTR). Debris objects in space refer to the collection of defunct objects orbiting the Earth. Examples of debris include non-operational satellites, rocket bodies, and fragments generated from explosions, collisions, or faulty payload assembly.

Not visible in the next 10 days
Identifier
48180, 2002-032V
Orbit
Decayed
Country
Flag of USUS
Related business
Manufacturer
Unknown
Mission
Decayed spacecraft
Bus & Motor
Unknown
Mass
Unknown
Launch date (UTC)
2002-06-24 (24 years ago)
Launch vehicle
Unknown
Launch site
Air Force Western Test Range (AFWTR)
Object type
Payload
Rocket body
Debris
Shape & HBR
Unknown shape, 0.1 m
Radar Cross Section
Medium (>0.1 m² and <1 m²)

Expand to show TLE details & history
Last TLE update: 1 year ago

TLE from 1 year ago
0 NOAA 17 DEB
1 48180U 02032V   25041.23953158  .00597005  00000-0  25960-1 0  9995
2 48180  98.7728  51.6619 0014046 126.7122 233.5401 15.19832195 36852
Epoch: 2025-02-10T05:44Z
TLE epoch observation values (Epoch: 2025-02-10T05:44:55.528Z)
Latitude
-0.00006°
Longitude
-175.13101°
Altitude
515.151 km
Speed
7.603 km/s
True Right ascension
03h 26m 38s
True Declination
0° 00' 00"
Sunlit
Object was in daylight at epoch
Visualization orbit readout
Latitude
Unknown
Longitude
Unknown
Altitude
Unknown
Speed
Unknown
Apparent Right ascension
Unknown
Apparent Declination
Unknown
Sunlit
N/A
Visualization observer readout
Local Sidereal Time
00:25:41
Azimuth
Unknown
Elevation
Unknown
Doppler factor
Unknown
Orbital elements
Apogee altitude
513.043 km
Perigee altitude
493.711 km
Semi-major axis
6,881.514 km
Eccentricity
0.0014
Inclination
98.7728°
RAAN
51.6619°
Arg. of periapsis
126.7122°
True anomaly
233.41078°
Mean anomaly
233.5401°
Eccentric anomaly
233.47543°
Mean motion
3.80204 °/min
Orbital period
94.69 mins
BSTAR
0.02596
Loading maneuver chart data...
Computing Atmospheric mass density...

Documentation

Showing up to 5 results
|